OneWeb SL0558

operational
NORAD ID: 56059 Int'l Des: 2023-043 Owner: ONEWEBN Country: UK Constellation: oneweb
LEOCIRCULARPOLARONEWEB_TYPE

About OneWeb SL0558

Description loading...

Live Position

Loading 3D Globe...

Upcoming Passes

Altitude History

Altitude vs Time

uPlot chart will show altitude changes over time

Two-Line Element Set

1 56059U 23043P 25258.05912236 .00000058 00000-0 10921-3 0 9996
2 56059 87.9202 298.8913 0001585 104.4446 255.6864 13.21824776121895
Epoch: Sep 15, 2025 • Age: 12 hours

Current Status

Altitude 1192.0 km
Velocity 7.26 km/s
Sub-Earth Point -36.21°S, 75.58°W
Launch Date Mar 26, 2023
Age 2.4 years
Type internet

Technical Details

Classification Payload
Mass 148.00 kg
Dry Mass 140.00 kg
Total Mass 148.00 kg
Length 1.30 m
Diameter 1.00 m
Span 5.00 m
Shape Trapezoid+2 pan
Manufacturer ONEWUS
Bus Type ARROW
Phase Status In Orbit
Owner/State ONEWEBN/UK

Large Constellations

Loading constellations...